This demonstration page uses our WeatherBlox Daily Observations layout. Learn more.

Left ArrowRight Arrow

44.8408, -93.29828

Hourly Observations for July 28, 2022

Temp ( °F °C ) Dew Point ( °F °C ) Humidity (%) Winds ( mph kmh ) Pressure ( in mb ) Visibility ( mi km ) Precip ( " mm )
12:53 am 00:53 Mostly Clear 67 19.4 51 10.6 57 57 NW 8 13 29.88 1012 10 16 0.00 0.00
1:53 am 01:53 Clear 65 18.3 52 11.1 63 63 WNW 7 11 29.88 1012 10 16 0.00 0.00
2:53 am 02:53 Clear 64 17.8 53 11.7 68 68 NW 10 17 29.89 1012 10 16 0.00 0.00
3:53 am 03:53 Clear 63 17.2 53 11.7 70 70 NW 13 20 29.90 1012 10 16 0.00 0.00
4:53 am 04:53 Clear 62 16.7 53 11.7 73 73 NNW 12 19 29.90 1012 10 16 0.00 0.00
5:53 am 05:53 Clear 60 15.6 53 11.7 78 78 NW 6 9 29.92 1013 10 16 0.00 0.00
6:53 am 06:53 Sunny 61 16.1 53 11.7 75 75 WNW 13 20 29.94 1014 10 16 0.00 0.00
7:53 am 07:53 Sunny 63 17.2 53 11.7 70 70 NW 15 24 29.96 1014 10 16 0.00 0.00
8:53 am 08:53 Mostly Sunny 67 19.4 54 12.2 63 63 NW 10 17 29.97 1015 10 16 0.00 0.00
9:53 am 09:53 Mostly Sunny 70 21.1 52 11.1 53 53 NW 13 20 29.96 1015 10 16 0.00 0.00
10:53 am 10:53 Mostly Sunny 72 22.2 50 10 46 46 WNW 16 26 29.96 1015 10 16 0.00 0.00
11:53 am 11:53 Partly Cloudy 74 23.3 50 10 43 43 NW 20 31 29.96 1015 10 16 0.00 0.00
12:53 pm 12:53 Mostly Cloudy 73 22.8 50 10 44 44 NW 15 24 29.97 1015 10 16 0.00 0.00
1:53 pm 13:53 Mostly Cloudy 73 22.8 49 9.4 43 43 WNW 12 19 29.96 1015 10 16 0.00 0.00
2:53 pm 14:53 Mostly Cloudy 76 24.4 49 9.4 39 39 W 13 20 29.95 1014 10 16 0.00 0.00
3:53 pm 15:53 Mostly Cloudy 76 24.4 51 10.6 42 42 NW 18 30 29.94 1014 10 16 0.00 0.00
4:53 pm 16:53 Mostly Cloudy 74 23.3 51 10.6 45 45 NW 13 20 29.95 1014 10 16 0.00 0.00
5:53 pm 17:53 Mostly Cloudy 75 23.9 52 11.1 45 45 NW 12 19 29.95 1014 10 16 0.00 0.00
6:53 pm 18:53 Mostly Cloudy 73 22.8 50 10 44 44 WNW 15 24 29.95 1014 10 16 0.00 0.00
7:53 pm 19:53 Mostly Cloudy 72 22.2 50 10 46 46 NW 13 20 29.96 1015 10 16 0.00 0.00
8:53 pm 20:53 Mostly Clear 69 20.6 52 11.1 55 55 NW 7 11 29.97 1015 10 16 0.00 0.00
9:53 pm 21:53 Mostly Clear 67 19.4 52 11.1 59 59 NW 7 11 29.99 1016 10 16 0.00 0.00
10:53 pm 22:53 Clear 67 19.4 52 11.1 59 59 WNW 7 11 30.00 1016 10 16 0.00 0.00
11:53 pm 23:53 Clear 66 18.9 53 11.7 63 63 WNW 7 11 30.01 1016 10 16 0.00 0.00

Powered by AerisWeather